Location: Chervonnoye
(48.6000°N, 34.4000°E)
Time: 18:21:59
(UTC+00:00)

Cosmos 1805 Rocket - Visible Passes

Search period start: 16 April 2021 00:00
Search period end: 26 April 2021 00:00
Orbit: 606 x 630 km, 82.5° (Epoch: 16 April)

Date Brightness Start Highest point End Pass type
(mag) Time Alt. Az. Time Alt. Az. Time Alt. Az.
16 Apr 5.3 19:57:33 10° NNE 20:00:09 23° NE 20:00:09 23° NE visible
16 Apr 5.5 21:35:10 10° NNW 21:37:17 24° NW 21:37:17 24° NW visible
17 Apr 4.8 20:14:10 10° N 20:17:06 34° NNE 20:17:06 34° NNE visible
17 Apr 5.9 21:52:40 10° NW 21:54:14 17° WNW 21:54:14 17° WNW visible
18 Apr 4.5 20:30:59 10° N 20:34:03 44° N 20:34:03 44° N visible
18 Apr 6.3 22:10:53 10° WNW 22:11:11 11° WNW 22:11:11 11° WNW visible
19 Apr 5.5 19:11:16 10° NNE 19:13:53 16° ENE 19:13:53 16° ENE visible
19 Apr 4.7 20:47:59 10° NNW 20:51:01 41° NW 20:51:01 41° NW visible
20 Apr 5.0 19:27:32 10° NNE 19:30:51 26° ENE 19:30:51 26° ENE visible
20 Apr 5.1 21:05:11 10° NNW 21:07:59 29° WNW 21:07:59 29° WNW visible
21 Apr 4.3 19:44:09 10° N 19:47:50 42° NE 19:47:50 42° NE visible
21 Apr 5.7 21:22:40 10° NW 21:24:58 19° WNW 21:24:58 19° WNW visible
22 Apr 3.7 20:00:58 10° N 20:04:50 66° NNE 20:04:50 66° NNE visible
22 Apr 6.2 21:40:56 10° WNW 21:41:58 12° WNW 21:41:58 12° WNW visible
23 Apr 5.4 18:41:14 10° NNE 18:44:00 16° ENE 18:44:42 16° ENE visible
23 Apr 4.0 20:17:58 10° NNW 20:21:50 56° WNW 20:21:50 56° WNW visible
24 Apr 4.8 18:57:30 10° NNE 19:01:12 26° ENE 19:01:43 26° E visible
24 Apr 4.8 20:35:10 10° NNW 20:38:51 33° W 20:38:51 33° W visible
25 Apr 4.0 19:14:08 10° N 19:18:18 44° ENE 19:18:45 42° E visible
25 Apr 5.5 20:52:40 10° NW 20:55:50 20° W 20:55:53 20° W visible
